[[{"header":{"parameterUnit":"m.s-1","parameterCategory":1,"la1":30.2991,"la2":30.254,"lo1":-89.0895,"lo2":-89.0444,"dy":0.0017,"dx":0.0017,"nx":28,"ny":28,"refTime":"2024-02-06T09:00:00:Z","depth":0,"parameterNumber":2,"parameterNumberName":"U-component_of_WINDS"},"data":[0,0,0,0,0,0,0,0,0,0,0,0,0,0,0,0,0,0,0,0,0,0,0,0,0,0,0,0,0,0,0,0,0,0,0,0,0,0,0,0,0,0,0,0,0,0,0,0,0,0,0,0,0,0,0,0,0,0,-4.9305,-4.9306,0,-4.9424,-4.9425,-4.9426,-4.9374,-4.9371,-4.9368,-4.9366,-4.9487,-4.9492,-4.9498,0,0,0,0,0,0,0,0,0,0,0,0,0,-4.9033,-4.9038,-4.9304,-4.9306,-4.9307,-4.9423,-4.9425,-4.9427,-4.9375,-4.9371,-4.9368,-4.9364,-4.9485,-4.9492,-4.9499,0,0,0,0,0,0,0,0,0,0,0,0,0,-4.9151,-4.904,-4.9304,-4.9296,-4.9296,-4.9423,-4.9425,-4.9427,-4.9375,-4.9371,-4.9367,-4.9363,-4.9482,-4.9491,-4.95,-4.9642,0,0,-4.9527,-4.9531,0,0,0,0,0,0,0,0,-4.9144,-4.9161,-4.9295,-4.9296,-4.9297,-4.938,-4.9373,-4.9499,-4.9376,-4.9345,-4.9365,-4.936,-4.9455,-4.9465,-4.9497,-4.9648,-4.9653,-4.9528,-4.9533,-4.9537,-4.954,0,0,0,0,0,0,0,-4.9136,-4.9156,-4.9351,-4.9297,-4.9298,-4.9286,-4.9298,-4.9397,-4.9423,-4.9348,-4.9344,-4.9359,-4.9454,-4.9489,-4.95,-4.9655,-4.9528,-4.9536,-4.9541,-4.9545,-4.9928,-4.9933,0,0,0,0,0,0,-4.9128,-4.9149,-4.9348,-4.9355,-4.9208,-4.9294,-4.9308,-4.9357,-4.9422,-4.9427,-4.9363,-4.9356,-4.9476,-4.9489,-4.9504,-4.9674,-4.9537,-4.9545,-4.9551,-4.9923,-4.9929,-4.9934,0,0,0,0,0,0,-4.9122,-4.9146,-4.9343,-4.9251,-4.9275,-4.9304,-4.936,-4.9362,-4.9397,-4.9433,-4.9437,-4.9393,-4.9473,-4.9491,-4.9608,-4.9677,-4.9549,-4.9558,-4.9918,-4.9925,-4.9932,-5.0015,0,0,0,0,0,0,-4.9115,-4.9145,-4.9199,-4.9253,-4.928,-4.9445,-4.9364,-4.9368,-4.9412,-4.9405,-4.9463,-4.9468,-4.9471,-4.9595,-4.9617,-4.9687,-4.9564,-4.9911,-4.9921,-4.9929,-5.0006,-5.0024,-5.004,0,0,0,0,0,-4.9105,-4.9217,-4.9202,-4.9226,-4.9349,-4.9449,-4.9465,-4.9466,-4.9418,-4.9473,-4.9496,-4.9466,-4.9667,-4.9608,-4.9632,-4.9705,-4.9907,-4.9918,-4.9929,-4.9999,-5.0021,-5.0039,0,0,0,0,0,0,-4.917,-4.9224,-4.9207,-4.934,-4.9391,-4.944,-4.9509,-4.9489,-4.9554,-4.9544,-4.9543,-4.9557,-4.9677,-4.9704,-4.9637,-4.9847,-4.978,-4.9796,-4.9824,-4.9846,-4.9862,-4.9852,-4.9572,0,0,0,0,0,-4.92,-4.9277,-4.932,-4.9434,-4.946,-4.9481,-4.9524,-4.9521,-4.9573,-4.9594,-4.9626,-4.9677,-4.9752,-4.9801,-4.9871,-5.0011,-5.0022,-5.0074,-5.0091,-5.0104,-5.0117,-5.0192,-5.0215,-4.997,-4.997,-4.997,0,0,-4.9262,-4.9301,-4.935,-4.9448,-4.9486,-4.9566,-4.9499,-4.9586,-4.9645,-4.9607,-4.9718,-4.9745,-4.9802,-4.9931,-4.9989,-4.9956,-5.0188,-5.0118,-5.0129,-5.0134,-5.0206,-5.0229,-5.0249,-4.9978,-4.9976,-4.9975,0,0,-4.9415,-4.9453,-4.9551,-4.9591,-4.9651,-4.9664,-4.9688,-4.9742,-4.9757,-4.987,-4.9843,-4.9914,-5.0042,-5.0084,-5.0122,-5.0294,-5.0268,-5.0317,-5.0403,-5.0476,-5.0495,-5.0512,-5.0572,-5.0593,-5.0331,-5.0331,-5.0331,0,-4.9484,-4.9603,-4.9604,-4.9693,-4.9737,-4.9708,-4.9806,-4.9846,-4.9926,-4.9956,-4.9919,-5.008,-5.0117,-5.0254,-5.0296,-5.0329,-5.0355,-5.0309,-5.0493,-5.051,-5.0526,-5.0582,-5.0605,-5.0336,-5.0336,-5.0335,-5.0335,0,-4.9684,-4.9767,-4.9839,-4.9917,-4.9969,-5.0063,-5.0078,-5.0131,-5.0125,-5.0142,-5.0257,-5.0301,-5.0379,-5.0412,-5.0406,-5.055,-5.0527,-5.0492,-5.0424,-5.0554,-5.0607,-5.0629,-5.0344,-5.0342,-5.034,-5.0339,0,0,-4.9877,-4.9956,-4.9982,-5.0017,-5.0082,-5.0146,-5.024,-5.0317,-5.0361,-5.0419,-5.0496,-5.0607,-5.0574,-5.0618,-5.0617,-5.0682,-5.0813,-5.0638,-5.0639,-5.0667,-5.0971,-5.0995,-5.102,-5.0798,-5.0802,-5.0805,-5.0966,0,-5.0033,-5.0196,-5.02,-5.0349,-5.0425,-5.04,-5.0481,-5.053,-5.0549,-5.0617,-5.0639,-5.0717,-5.067,-5.0695,-5.0759,-5.0783,-5.0873,-5.0772,-5.0868,-5.0871,-5.0851,-5.1048,-5.1074,-5.1222,-5.0986,-5.099,-5.0993,0,-5.0236,-5.0299,-5.0456,-5.051,-5.0542,-5.0614,-5.0686,-5.0752,-5.0807,-5.0816,-5.0866,-5.0856,-5.0951,-5.0883,-5.1013,-5.0944,-5.0985,-5.1003,-5.1009,-5.1015,-5.0937,-5.1057,-5.127,-5.1291,-5.1026,-5.1023,-5.1021,0,-5.0358,-5.0483,-5.0593,-5.0624,-5.069,-5.0742,-5.0772,-5.0823,-5.0869,-5.0932,-5.0962,-5.1036,-5.1075,-5.1133,-5.1143,-5.1092,-5.1273,-5.1206,-5.1282,-5.1282,-5.1319,-5.1316,-5.1538,-5.135,-5.135,-5.1349,-5.1349,0,-5.053,-5.0626,-5.0648,-5.0715,-5.0822,-5.0828,-5.0933,-5.096,-5.1006,-5.1077,-5.1061,-5.1129,-5.1139,-5.121,-5.1219,-5.1324,-5.1343,-5.1353,-5.1353,-5.1353,-5.1351,-5.1376,-5.1365,-5.1355,-5.1354,-5.1353,-5.1352,0,-5.0683,-5.0702,-5.0819,-5.0874,-5.089,-5.0966,-5.1012,-5.1076,-5.1095,-5.1186,-5.1208,-5.1237,-5.1319,-5.1336,-5.1433,-5.1439,-5.1564,-5.1556,-5.1545,-5.1543,-5.1618,-5.161,-5.1862,-5.1895,-5.1688,-5.169,-5.1691,0,-5.0789,-5.0863,-5.0925,-5.0972,-5.1004,-5.1081,-5.1128,-5.1137,-5.1187,-5.1256,-5.1312,-5.1393,-5.1457,-5.1589,-5.1619,-5.1693,-5.1685,-5.1769,-5.1696,-5.1692,-5.1683,-5.1677,-5.1684,-5.1781,-5.1783,-5.1785,-5.1787,0,-5.0976,-5.0982,-5.1051,-5.1124,-5.1181,-5.1239,-5.1294,-5.1334,-5.135,-5.1408,-5.1491,-5.1542,-5.1641,-5.1721,-5.1795,-5.1826,-5.1809,-5.181,-5.1831,-5.1829,-5.1819,-5.1823,-5.158,-5.1803,-5.1801,-5.18,-5.1799,-5.1799,-5.1107,-5.1171,-5.1224,-5.1302,-5.1345,-5.1397,-5.146,-5.1487,-5.1557,-5.1638,-5.164,-5.1731,-5.1786,-5.1884,-5.192,-5.1991,-5.1965,-5.1996,-5.2004,-5.201,-5.2016,-5.1811,-5.2006,-5.2005,-5.2005,-5.2004,-5.2004,0,-5.129,-5.1324,-5.1396,-5.1473,-5.1535,-5.1515,-5.1575,-5.1627,-5.1708,-5.176,-5.1824,-5.1921,-5.1998,-5.2036,-5.2112,-5.2162,-5.2156,-5.2182,-5.2176,-5.2184,-5.2036,-5.2009,-5.2185,-5.2185,-5.2185,-5.2185,-5.2185,-5.2185,-5.1392,-5.1498,-5.1512,-5.1639,-5.1673,-5.1762,-5.1798,-5.1846,-5.1887,-5.1995,-5.206,-5.2084,-5.213,-5.2211,-5.2281,-5.229,-5.2318,-5.2347,-5.2352,-5.2213,-5.2194,-5.2176,-5.215,-5.2353,-5.2354,-5.2492,-5.2494,-5.2495]},{"header":{"parameterUnit":"m.s-1","parameterCategory":1,"la1":30.2991,"la2":30.254,"lo1":-89.0895,"lo2":-89.0444,"dy":0.0017,"dx":0.0017,"nx":28,"ny":28,"refTime":"2024-02-06T09:00:00:Z","depth":0,"parameterNumber":3,"parameterNumberName":"V-component_of_WINDS"},"data":[0,0,0,0,0,0,0,0,0,0,0,0,0,0,0,0,0,0,0,0,0,0,0,0,0,0,0,0,0,0,0,0,0,0,0,0,0,0,0,0,0,0,0,0,0,0,0,0,0,0,0,0,0,0,0,0,0,0,1.796,1.7961,0,1.8053,1.8054,1.8055,1.8099,1.8099,1.8099,1.8099,1.8189,1.8192,1.8194,0,0,0,0,0,0,0,0,0,0,0,0,0,1.7819,1.7821,1.796,1.7961,1.7962,1.8052,1.8054,1.8055,1.8099,1.8099,1.8099,1.8099,1.8189,1.8192,1.8194,0,0,0,0,0,0,0,0,0,0,0,0,0,1.7892,1.7822,1.796,1.7995,1.7999,1.8052,1.8054,1.8055,1.8099,1.8099,1.8099,1.8099,1.8188,1.8191,1.8195,1.8218,0,0,1.8206,1.8208,0,0,0,0,0,0,0,0,1.7888,1.7898,1.7989,1.7993,1.7998,1.8064,1.8037,1.811,1.8099,1.8061,1.8099,1.8099,1.8148,1.8155,1.8172,1.8223,1.8226,1.8206,1.8209,1.821,1.8211,0,0,0,0,0,0,0,1.7883,1.7894,1.7997,1.799,1.7995,1.8006,1.8016,1.8051,1.8103,1.8064,1.8068,1.8078,1.815,1.8168,1.8174,1.8228,1.8206,1.821,1.8212,1.8213,1.8304,1.8304,0,0,0,0,0,0,1.7873,1.7889,1.7994,1.7999,1.7942,1.8008,1.802,1.8043,1.8103,1.8112,1.8078,1.808,1.8162,1.817,1.8178,1.821,1.821,1.8214,1.8216,1.8304,1.8304,1.8305,0,0,0,0,0,0,1.7869,1.7882,1.799,1.7945,1.796,1.8011,1.8036,1.8045,1.8063,1.8114,1.8123,1.8088,1.8162,1.8172,1.8209,1.8214,1.8215,1.8219,1.8304,1.8304,1.8304,1.8275,0,0,0,0,0,0,1.7865,1.788,1.789,1.7945,1.7962,1.802,1.8036,1.8046,1.807,1.8073,1.8125,1.8133,1.8163,1.8203,1.8212,1.8219,1.8221,1.8304,1.8304,1.8304,1.8276,1.8274,1.8273,0,0,0,0,0,1.786,1.7877,1.789,1.7903,1.7976,1.802,1.803,1.8065,1.807,1.808,1.8113,1.8132,1.8212,1.8206,1.8217,1.8225,1.8303,1.8304,1.8304,1.8276,1.8275,1.8273,0,0,0,0,0,0,1.7819,1.7884,1.79,1.7936,1.7972,1.8028,1.8041,1.8062,1.8096,1.8098,1.8138,1.815,1.8182,1.8207,1.82,1.8252,1.8259,1.8262,1.8234,1.8233,1.8232,1.8225,1.8224,0,0,0,0,0,1.7814,1.7846,1.7901,1.7927,1.7945,1.799,1.801,1.8035,1.8073,1.8089,1.8124,1.816,1.8194,1.8215,1.8248,1.828,1.8292,1.8291,1.8289,1.8288,1.829,1.831,1.831,1.8306,1.8306,1.8306,0,0,1.7804,1.7844,1.7861,1.792,1.7951,1.7982,1.8002,1.8034,1.8058,1.8093,1.813,1.8157,1.82,1.8235,1.8251,1.8256,1.8294,1.8289,1.8287,1.829,1.831,1.831,1.8311,1.8307,1.8306,1.8306,0,0,1.7802,1.7835,1.7862,1.7893,1.7941,1.7971,1.7977,1.803,1.805,1.8089,1.8116,1.8144,1.8201,1.8231,1.8254,1.8266,1.8284,1.8275,1.8268,1.8287,1.8287,1.8288,1.8293,1.8294,1.8277,1.8277,1.8277,0,1.7783,1.7833,1.7872,1.7903,1.7928,1.7964,1.799,1.8019,1.8074,1.809,1.8096,1.8169,1.82,1.8243,1.8246,1.8263,1.8271,1.8269,1.8284,1.8285,1.8286,1.8291,1.8293,1.8275,1.8275,1.8276,1.8276,0,1.7808,1.7842,1.7857,1.7912,1.7939,1.7967,1.801,1.8033,1.8055,1.8084,1.8123,1.8162,1.8205,1.8217,1.8238,1.8263,1.8265,1.8277,1.8285,1.8284,1.829,1.8292,1.8273,1.8274,1.8274,1.8275,0,0,1.7781,1.786,1.7865,1.7891,1.7947,1.7974,1.8004,1.8048,1.8066,1.8104,1.813,1.8179,1.8191,1.8216,1.8241,1.8257,1.8265,1.8267,1.8269,1.8266,1.8296,1.8287,1.8289,1.8278,1.8279,1.8279,1.8293,0,1.7788,1.7846,1.7883,1.7925,1.7957,1.7992,1.8019,1.8056,1.8085,1.8116,1.8147,1.8181,1.8194,1.821,1.8227,1.8261,1.8272,1.826,1.8303,1.8304,1.8292,1.8292,1.8282,1.8293,1.8295,1.8296,1.8296,0,1.7803,1.7842,1.7888,1.7943,1.7958,1.7981,1.8025,1.8054,1.8097,1.8117,1.8147,1.8172,1.8206,1.8211,1.8258,1.8249,1.8269,1.8288,1.8289,1.8294,1.83,1.8297,1.8297,1.8299,1.8299,1.8299,1.8299,0,1.778,1.7844,1.7881,1.7902,1.7966,1.7982,1.8009,1.8052,1.8076,1.8114,1.8131,1.8171,1.8193,1.8224,1.826,1.8261,1.8303,1.8311,1.832,1.8319,1.8327,1.8326,1.833,1.8339,1.8339,1.8339,1.8339,0,1.7784,1.7811,1.7871,1.7894,1.7925,1.7967,1.7997,1.8027,1.8065,1.8094,1.8126,1.8152,1.8198,1.8229,1.8257,1.8292,1.8301,1.8318,1.8325,1.8315,1.8313,1.8329,1.8329,1.834,1.834,1.8339,1.8339,0,1.7763,1.7805,1.7847,1.7906,1.7921,1.7942,1.7991,1.8014,1.8045,1.8081,1.8092,1.814,1.8179,1.8218,1.8269,1.8288,1.8322,1.8332,1.8308,1.8313,1.8319,1.8318,1.8334,1.8338,1.8343,1.8343,1.8343,0,1.7763,1.7785,1.7847,1.7869,1.7896,1.7931,1.7957,1.7999,1.8025,1.8076,1.8093,1.8135,1.817,1.823,1.8269,1.8309,1.832,1.8323,1.8326,1.8316,1.8321,1.832,1.8322,1.8321,1.8321,1.8321,1.8321,0,1.7758,1.7779,1.7815,1.786,1.7891,1.7927,1.7965,1.7981,1.803,1.8057,1.8098,1.8126,1.818,1.8221,1.8266,1.8293,1.8315,1.832,1.8324,1.8314,1.83,1.8309,1.8305,1.8319,1.8319,1.8319,1.8319,1.8319,1.7749,1.7771,1.7818,1.7858,1.7892,1.7927,1.7952,1.7987,1.8022,1.8071,1.8093,1.8135,1.8178,1.8241,1.8268,1.83,1.8306,1.8312,1.8314,1.8315,1.8313,1.8295,1.8309,1.8309,1.8309,1.8309,1.8309,0,1.7746,1.7779,1.7816,1.7869,1.7901,1.7921,1.7964,1.7989,1.8025,1.8065,1.81,1.8147,1.8188,1.8231,1.8273,1.8291,1.8302,1.8301,1.83,1.8306,1.8305,1.8297,1.8291,1.8291,1.8291,1.8291,1.8291,1.8291,1.7749,1.7788,1.7814,1.7869,1.7901,1.7944,1.7967,1.7999,1.8031,1.8083,1.8118,1.8146,1.8187,1.8233,1.8271,1.8283,1.8297,1.8293,1.8307,1.8305,1.8306,1.8307,1.83,1.8295,1.8295,1.8306,1.8306,1.8306]}]]